Weather Roundup
Issued by NWS Springfield, MO

Home | Current Version | Previous Version | Text Only | Print | Product List | Glossary On
Versions: 1 2 3 4 5 6 7 8 9 10 11 12 13 14 15 16 17 18 19 20 21 22 23 24 25 26 27 28 29 30 31 32 33 34 35 36 37 38 39 40 41 42 43 44 45 46 47 48 49 50
000
NZUS99 KSGF 082207
HRRSGF

HOURLY WEATHER
NATIONAL WEATHER SERVICE SPRINGFIELD MO
400 PM CST MON FEB 08 2016

......SGF CWA......

CITY           SKY/WX    TMP DP  RH WIND       PRES   REMARKS
SPRINGFIELD    CLOUDY    33  13  43 NW24G35   30.01R WCI  20
JOPLIN         CLOUDY    39  16  39 NW24G33   30.10R WCI  28
WEST PLAINS    FLURRIES  32  17  54 NW10G24   29.97R WCI  24
ROLLA          CLOUDY    26  16  65 NW22G28   29.93R WCI  12
OSAGE BEACH    CLOUDY    30  12  47 W14G36    30.00R WCI  20
BRANSON        CLOUDY    34  14  44 NW21G30   30.02R WCI  22

......SURROUNDING SGF CWA......

CITY           SKY/WX    TMP DP  RH WIND       PRES   REMARKS
CHANUTE        PTSUNNY   40  15  36 NW22G33   30.12R WCI  30
PARSONS        MOSUNNY   43  14  31 N29G39    30.13R
COFFEYVILLE    SUNNY     43  13  29 NW31G40   30.14R
EMPORIA        MOSUNNY   39  12  33 NW32G40   30.13R WCI  27
GROVE OK       MOSUNNY   43  18  36 NW21G31   30.12R
ROGERS AR      PTSUNNY   38  15  39 W25       30.05F WCI  27
SILOAM SPRINGS MOSUNNY   39  12  33 NW28G38   30.08S WCI  28
HARRISON AR    CLOUDY    34  19  54 NW18G29   30.02R WCI  23
NEAR YELLVILLE CLOUDY   N/A N/A N/A NW16G22   30.01R

......KANSAS AND MISSOURI......

CITY           SKY/WX    TMP DP  RH WIND       PRES   REMARKS
KANSAS CTY INT PTSUNNY   31  16  54 N26G37    30.06R WCI  17
DOWNTOWN KC    CLOUDY    34  14  43 NW21G38   30.06R WCI  22
COLUMBIA       FLURRIES  26  14  60 NW22G35   29.97R WCI  12
SEDALIA        CLOUDY    28  16  60 NW25G35   30.04R WCI  13
ST JOSEPH      CLOUDY    31  16  54 N18G29    30.09R WCI  19
ST LOUIS       LGT SNOW  26  15  63 NW16G24   29.92R WCI  14
SPIRIT OF STL  LGT SNOW  26  16  65 NW18G24   29.93R WCI  13
KIRKSVILLE     FLURRIES  22   9  57 NW20G26   29.98R WCI   7
WICHITA        MOSUNNY   44  11  26 NW33G45   30.20R
TOPEKA         PTSUNNY   37  14  38 NW30G37   30.12S WCI  24
OLATHE         CLOUDY    33  15  47 NW22G37   30.06R WCI  21

......TENNESSEE......

CITY           SKY/WX    TMP DP  RH WIND       PRES   REMARKS
MEMPHIS        CLOUDY    44  18  35 W24G30    29.95R
NASHVILLE      LGT SNOW  36  27  69 W15G23    29.84R WCI  27

......ARKANSAS.......

CITY           SKY/WX    TMP DP  RH WIND       PRES   REMARKS
FAYETTEVILLE   CLOUDY    41  17  38 NW21G31   30.06F
FT SMITH       MOSUNNY   48  11  22 NW24G33   30.09F
LITTLE ROCK    PTSUNNY   46  16  30 NW18G33   30.05R

......OKLAHOMA.......

CITY           SKY/WX    TMP DP  RH WIND       PRES   REMARKS
TULSA          MOSUNNY   48  13  24 NW21G33   30.14R
MCALESTER      LGT RAIN  50  11  20 NW18G33   30.16F
OKLAHOMA CITY  MOSUNNY   49   4  16 N33G47    30.21F

......IOWA............

CITY           SKY/WX    TMP DP  RH WIND       PRES   REMARKS
DES MOINES     LGT SNOW  19   9  65 NW21G40   30.01R BLWGSNOWWCI   3
QUAD CITIES    CLOUDY    20  12  71 NW15G25   29.85R WCI   6

......ILLINOIS........

CITY           SKY/WX    TMP DP  RH WIND       PRES   REMARKS
QUINCY         LGT SNOW  19  11  70 NW23      29.92R WCI   2
CHICAGO        CLOUDY    27  20  75 NW13      29.70R WCI  16



USA.gov is the U.S. government's official web portal to all federal, state and local government web resources and services.